Terug naar catalogus

PRAETORIAN SDA_616

ActiefMilitairPO
NORAD 65579·PAYLOAD·🇺🇸 United States

Gelanceerd Sep 10, 2025 vanaf Vandenberg Space Force Base

Loading…

Volgende Passages (komende 24 uur)

TLE

VersSource: Space-Track

Epoch: Sep 13, 2026, 19:21 UTC

1 65579U 25203Q   26256.80676907  .00000104  00000-0  84455-4 0  9993
2 65579  81.3040 289.1699 0004868 332.2824  27.8072 13.83274946 50934

Volg PRAETORIAN SDA_616 in realtime met AllMySat

Download on the App Store